Theta_e
347 346 345 342 340 339 337 337 337 337 336 337 339 341 342 345 349 350 350 351 349 350 352 353 355 358 360 358 358 357 357 356 355 353 352 351 350 350 348 348 348 349 347
344 342 339 337 336 336 335 334 333 333 333 334 338 342 344 343 343 345 347 347 343 343 346 348 350 352 353 355 358 358 356 355 355 354 352 352 350 350 349 349 349 349 347
341 338 336 334 334 334 332 331 329 329 329 335 339 341 343 338 336 336 336 337 341 343 342 345 346 347 349 352 353 354 354 352 353 353 352 351 350 349 349 350 349 349 348
339 336 332 332 333 332 329 326 325 324 324 330 337 338 338 338 333 332 331 332 335 337 339 340 342 343 346 347 348 352 352 352 350 350 349 351 351 349 348 349 348 348 347
333 331 330 330 331 326 325 324 324 325 323 324 333 336 335 333 332 329 328 328 330 333 335 337 338 337 340 344 346 347 349 351 350 349 350 350 348 349 348 348 348 347 346
327 328 328 330 328 324 324 325 325 326 324 324 325 333 331 326 330 327 325 325 326 328 332 333 336 334 335 337 340 341 344 346 347 347 348 347 347 347 348 349 348 347 347
329 329 326 327 327 325 326 327 324 323 322 325 322 322 327 334 323 325 325 324 325 325 327 329 330 330 330 334 334 336 338 338 340 340 343 344 346 347 348 349 349 348 346
328 328 327 325 326 324 326 326 326 320 320 323 318 320 314 319 320 325 324 322 323 324 324 325 327 327 327 329 331 333 336 337 339 338 338 341 343 345 346 347 348 347 347
327 328 327 327 327 325 322 325 325 324 318 320 323 316 311 310 315 320 321 322 322 321 323 324 325 325 326 326 329 332 333 335 337 337 335 335 338 342 345 346 347 347 346
328 329 329 329 328 326 326 324 324 323 322 317 319 320 321 319 311 309 316 318 319 319 322 322 323 324 326 325 327 329 330 332 333 335 335 334 335 339 342 344 346 346 347
329 328 330 330 330 327 328 326 325 324 321 318 317 317 318 317 318 312 308 311 315 317 319 321 324 322 324 325 327 326 324 324 324 325 329 333 334 335 338 341 342 343 345
327 329 329 330 329 328 328 326 326 324 321 319 318 318 315 313 312 311 309 310 311 314 318 319 322 321 321 323 324 324 323 323 322 322 323 326 327 329 333 337 339 341 342
324 328 330 328 326 325 325 325 325 322 320 318 317 315 316 315 315 313 311 309 308 312 315 319 320 320 318 319 320 321 323 323 321 320 320 320 321 322 326 331 333 336 337
326 330 328 325 324 323 322 324 322 319 319 318 316 316 313 313 313 312 311 310 306 308 311 315 317 317 317 317 318 319 319 321 321 319 319 318 319 320 321 322 325 327 329
326 325 324 323 322 321 320 321 319 318 318 316 315 315 313 312 313 313 314 313 310 304 305 311 311 316 314 314 315 317 316 316 320 319 318 318 317 317 319 319 319 321 323
324 322 321 320 320 319 318 318 317 316 315 313 312 313 313 312 312 313 314 313 312 307 304 309 310 313 314 313 314 315 314 314 316 317 317 317 316 315 317 318 318 319 319
321 319 318 317 316 316 316 316 315 313 312 312 313 311 311 313 311 311 312 312 309 308 304 307 310 312 312 312 312 313 313 313 313 315 315 315 315 314 315 316 316 317 317
319 317 316 316 315 314 314 312 310 310 309 309 309 309 308 309 310 310 309 309 308 308 305 303 307 306 309 311 310 311 311 312 313 314 314 314 314 313 313 314 314 314 314
314 316 314 312 312 312 310 310 308 308 308 307 307 306 306 307 308 308 308 307 306 305 305 303 303 306 306 308 308 310 310 312 311 313 313 313 313 313 313 313 312 312 311
313 313 311 313 312 311 310 308 307 307 306 306 305 306 307 307 308 308 306 307 306 305 305 303 303 303 304 307 306 304 305 308 308 310 313 311 313 314 314 313 313 315 311
314 311 310 312 312 310 306 306 306 305 305 304 305 305 307 308 307 307 307 307 306 304 303 302 301 302 301 302 302 305 303 305 307 309 309 310 311 314 314 313 317 315 310
313 311 312 311 310 306 301 302 304 304 304 304 305 307 307 306 306 306 305 304 305 305 304 302 301 300 302 303 304 303 304 302 300 308 306 307 312 312 314 315 311 309 308
308 312 312 311 309 306 300 300 300 305 306 306 306 306 305 306 306 305 305 305 305 303 302 304 304 303 303 305 306 304 304 303 302 305 306 305 310 309 315 316 309 308 307
310 310 310 309 308 304 299 298 299 306 307 305 306 306 305 304 302 302 304 303 303 305 305 304 305 306 306 307 307 306 306 305 304 305 309 303 308 308 312 319 307 306 305
309 308 308 307 306 305 298 298 302 306 305 305 305 303 303 303 297 296 302 301 302 303 303 302 301 299 298 298 300 305 302 301 299 300 306 304 306 307 309 317 318 308 305
308 307 306 306 302 304 296 297 301 306 305 305 307 305 298 299 295 295 301 301 299 300 302 303 305 305 305 306 302 307 305 301 301 300 305 303 303 304 302 315 316 314 314
Wind_Speed
4 4 5 5 5 5 6 6 6 7 8 8 8 8 8 8 8 5 5 14 16 16 16 16 16 16 9 11 10 12 14 16 17 18 18 17 17 17 18 17 16 15 13
4 5 5 5 6 6 6 6 7 7 7 7 7 8 7 8 10 10 7 7 13 16 17 18 18 16 14 13 9 11 14 14 17 18 18 18 18 17 18 19 17 16 14
7 6 6 6 6 6 8 7 8 8 7 6 7 7 7 10 10 11 10 9 9 13 17 18 17 18 18 15 12 10 9 14 15 16 17 18 18 19 19 20 19 17 16
8 7 6 6 6 6 6 7 8 8 9 7 6 7 6 8 10 11 10 10 10 9 10 19 18 19 18 16 15 14 11 9 9 13 16 17 18 19 21 20 19 19 18
9 7 6 6 6 7 7 8 8 9 10 8 4 4 6 7 9 9 13 12 13 11 9 13 16 17 19 18 16 17 15 12 11 11 12 14 18 17 19 20 20 20 19
8 8 7 8 7 8 8 8 9 9 10 9 4 3 4 8 7 9 11 10 12 13 11 12 10 9 16 17 18 18 18 16 14 14 13 11 13 16 17 20 21 21 20
8 8 7 7 7 8 9 9 7 9 10 10 5 3 2 1 11 8 9 10 13 11 12 11 9 9 9 12 16 17 18 18 17 14 13 12 13 12 12 17 20 21 20
8 8 8 8 8 8 9 10 10 7 8 10 8 3 5 2 10 6 8 9 13 10 10 11 11 12 11 9 13 17 21 20 18 16 15 14 14 12 12 13 16 19 20
9 8 8 7 7 6 6 7 7 8 7 6 10 6 5 5 10 6 8 8 12 10 10 9 10 11 11 10 12 14 22 19 17 17 16 15 16 17 15 12 10 14 18
8 7 7 6 5 5 6 5 5 5 5 6 4 5 5 5 7 7 8 9 10 10 11 8 9 10 12 10 13 17 21 20 19 18 18 16 14 15 15 14 11 10 13
6 6 5 5 5 4 5 5 4 5 3 4 4 5 5 6 4 8 11 11 10 9 9 8 8 9 10 10 10 14 20 20 21 21 17 15 15 15 15 15 13 12 12
5 5 5 6 6 4 4 3 3 4 4 4 3 4 5 6 7 8 10 13 12 10 9 9 6 8 9 9 11 20 17 19 19 19 20 17 15 16 15 15 14 13 13
5 5 5 6 5 5 5 4 4 4 4 4 5 5 4 4 4 6 7 10 12 10 7 5 6 8 9 9 11 20 15 16 18 17 17 18 18 17 16 14 14 14 13
5 6 6 6 6 5 4 4 4 3 4 3 6 6 5 6 6 6 7 8 8 9 9 10 8 7 9 10 13 20 13 14 17 16 15 15 17 19 17 16 15 14 13
6 7 6 6 6 5 4 3 4 4 3 4 4 5 6 6 6 6 6 6 5 8 10 10 9 9 9 10 11 13 14 19 14 14 14 15 15 17 17 15 16 15 14
8 7 7 6 5 5 4 4 4 5 4 4 4 6 5 6 6 5 5 5 4 5 7 8 10 11 12 10 12 14 14 17 13 11 15 16 15 15 16 16 15 16 15
8 8 7 6 5 5 5 5 5 5 5 5 5 6 7 7 7 7 6 6 6 7 9 10 10 11 14 13 13 12 13 13 11 13 14 17 15 14 15 16 14 15 15
9 7 7 6 6 6 6 6 6 5 6 6 6 7 8 7 8 6 6 7 7 8 9 13 11 11 11 12 13 14 11 10 11 11 16 16 13 13 14 16 13 15 16
6 7 6 6 6 6 5 6 6 6 5 5 6 7 8 8 7 6 7 8 8 9 9 10 10 9 10 10 12 11 10 11 10 16 10 12 11 14 14 14 12 10 9
9 8 5 6 6 6 6 6 5 5 5 5 6 6 7 7 7 7 7 8 9 9 8 8 9 9 9 10 10 11 11 11 11 12 8 13 14 13 12 11 12 9 15
8 6 6 7 6 5 5 5 5 5 5 6 6 6 6 9 9 8 7 9 9 8 8 8 9 9 9 11 11 11 11 11 11 10 10 12 11 9 7 9 6 7 11
8 6 7 7 6 5 8 6 5 5 5 6 6 6 6 5 9 8 10 11 10 9 10 10 9 11 12 11 10 11 11 13 11 9 13 12 10 9 7 6 9 9 12
6 8 7 7 7 7 5 6 3 4 4 5 5 6 6 6 9 10 10 10 6 5 10 10 10 10 12 11 11 12 13 13 12 11 10 11 8 11 8 5 11 12 11
9 8 8 7 6 7 6 4 0 2 2 4 5 6 6 7 10 11 10 10 10 9 7 7 8 10 10 9 10 10 12 12 10 9 9 8 10 10 10 3 10 9 10
9 8 8 7 6 6 4 4 3 2 3 4 4 5 6 7 10 11 10 10 10 9 8 5 9 11 11 10 10 9 9 11 11 10 8 11 9 11 10 4 5 6 10
8 8 8 6 5 6 5 4 3 2 4 2 1 2 4 7 9 8 9 9 9 10 11 12 10 9 7 5 3 6 8 10 11 9 11 11 10 10 7 4 7 10 9
Wind_Direction
82 62 51 40 31 24 18 16 10 4 0 358 357 353 353 352 348 347 341 27 15 15 8 2 3 355 294 247 237 237 231 227 225 222 221 222 226 232 238 241 240 245 230
79 71 63 52 46 33 34 24 18 12 13 4 11 18 31 42 36 27 20 22 24 19 15 13 10 3 357 350 270 260 246 231 233 231 220 219 222 225 234 238 238 238 230
81 79 69 56 47 40 35 28 19 21 20 19 35 43 52 50 44 38 30 20 8 24 14 14 12 9 9 360 337 310 327 261 242 239 228 222 218 223 228 232 235 237 232
89 84 76 59 49 48 39 33 22 19 18 21 42 51 47 43 45 38 33 25 16 13 14 17 18 17 10 7 4 352 333 324 305 269 245 225 227 228 225 226 229 232 230
92 89 81 72 62 55 45 31 33 21 15 14 26 59 57 45 37 34 30 26 22 17 8 18 15 17 13 12 8 1 3 359 338 307 276 250 246 234 224 226 224 225 228
95 98 88 71 63 57 48 38 35 32 22 5 358 78 68 48 35 32 24 19 18 13 14 11 6 11 14 9 12 9 8 5 1 0 358 319 267 245 231 225 225 223 222
97 98 90 87 76 62 51 40 38 36 33 13 8 7 346 310 27 25 19 15 11 12 15 15 15 5 3 2 9 1 5 2 1 359 355 352 341 306 255 236 231 225 221
103 96 92 82 65 68 51 41 34 27 36 31 11 346 358 342 7 15 10 6 5 359 5 10 10 10 3 359 360 2 1 351 348 349 350 346 338 329 314 265 243 232 221
100 96 92 84 81 68 66 53 41 35 23 39 37 17 346 355 334 358 351 360 351 350 350 357 9 11 8 357 354 2 356 349 344 345 342 339 341 331 326 318 291 249 231
109 105 97 92 81 72 66 60 47 34 4 24 14 38 23 344 348 324 334 344 344 346 346 345 359 3 3 0 0 14 3 3 358 346 340 338 337 334 324 323 318 314 258
117 108 97 83 69 57 65 48 41 33 47 19 23 359 4 340 336 324 325 335 335 343 342 337 354 357 359 360 357 7 7 6 4 1 347 339 337 339 334 325 320 308 296
132 114 100 86 71 64 59 46 45 45 49 44 15 2 7 349 343 331 324 326 330 338 336 341 8 357 357 353 355 353 1 2 2 1 6 2 352 338 330 328 319 310 303
145 122 108 87 77 57 51 33 56 64 53 37 18 344 353 356 325 321 313 324 326 327 332 331 4 359 355 353 350 350 352 356 353 355 359 358 354 349 345 329 326 318 310
133 124 103 92 85 66 45 48 71 58 44 32 24 10 343 352 335 327 321 333 320 327 331 358 349 13 349 347 344 341 343 0 341 342 345 354 352 348 345 344 334 330 322
120 107 96 89 80 71 43 86 69 52 28 25 30 13 346 350 339 331 322 321 334 325 328 334 333 356 346 334 343 340 337 340 325 337 339 339 347 344 340 343 340 330 323
123 117 108 99 88 72 53 52 78 58 35 23 9 3 354 353 329 337 332 335 336 318 302 322 321 331 336 331 337 334 330 321 328 332 331 336 331 336 334 334 341 331 334
126 122 113 97 81 77 65 66 64 36 27 19 13 5 2 354 354 349 341 341 331 334 315 319 315 331 325 328 331 332 324 319 323 326 328 320 318 326 329 323 333 329 341
123 120 111 99 92 80 66 58 50 34 20 15 11 1 0 348 342 348 334 346 342 329 323 316 324 319 324 326 328 323 330 324 326 334 311 304 302 322 316 320 319 334 332
124 108 115 104 105 87 76 62 50 45 41 22 1 352 343 332 331 346 338 340 335 329 326 323 321 329 329 337 330 324 331 325 326 328 339 327 322 309 305 303 321 315 311
125 119 107 112 100 91 73 60 51 38 21 6 359 347 350 337 335 345 348 337 335 323 327 318 323 329 328 343 333 337 334 333 330 327 336 321 295 297 285 293 305 327 326
124 121 128 123 126 105 70 68 48 27 9 351 355 346 356 355 353 349 328 335 321 318 322 324 326 328 340 338 337 336 329 324 326 328 333 322 320 319 307 295 296 2 325
129 132 136 142 127 93 87 74 23 21 13 15 9 358 342 334 342 318 323 318 312 299 304 314 321 335 333 324 337 334 322 334 327 343 328 320 322 326 322 299 15 336 341
141 138 151 137 128 106 90 79 38 43 29 15 3 352 345 4 337 340 333 311 311 240 268 299 308 322 321 331 325 323 335 330 327 322 322 316 326 322 334 341 26 12 347
143 149 137 135 130 106 89 78 357 49 48 18 15 2 0 5 17 344 332 336 339 338 351 324 320 312 314 323 313 314 305 314 320 332 4 315 331 322 325 353 61 30 7
147 144 137 138 131 113 93 84 337 94 47 48 25 34 4 2 360 342 336 343 337 348 341 282 272 278 289 281 281 301 343 329 346 346 15 327 336 339 329 343 33 79 32
147 147 140 126 112 122 102 88 329 63 66 25 8 54 87 6 346 357 351 349 348 352 336 333 336 336 331 347 237 325 324 333 342 346 12 331 358 348 328 350 355 30 19